This is the latest recevied weather packets stored in our database for station/object W5MAI. If no packets are shown the sender has not sent any weather packets the latest 10 day(s).
| Time | Temp. | Humidity | Pressure | Rain* | Wind** | Luminosity | Snow |
|---|---|---|---|---|---|---|---|
| 1777604018 | 19.44° C | 88% | 1014 hPa | 0 mm | - | 0 W/m² | - |
| 1777603442 | 20° C | 87% | 1013.9 hPa | 0 mm | - | 0 W/m² | - |
| 1777602806 | 20° C | 85% | 1013.1 hPa | 0 mm | - | 0 W/m² | - |
| 1777602232 | 20.56° C | 85% | 1013.9 hPa | 0 mm | - | 0 W/m² | - |
| 1777601653 | 20.56° C | 85% | 1013.8 hPa | 0 mm | - | 0 W/m² | - |
| 1777601005 | 20.56° C | 85% | 1012.7 hPa | 0 mm | - | 0 W/m² | - |
| 1777600430 | 20.56° C | 84% | 1011.9 hPa | 0 mm | - | 0 W/m² | - |
| 1777599840 | 20.56° C | 84% | 1012.2 hPa | 0 mm | - | 0 W/m² | - |
| 1777599204 | 21.11° C | 83% | 1012.1 hPa | 0 mm | - | 0 W/m² | - |
| 1777598625 | 21.11° C | 83% | 1011.6 hPa | 0 mm | - | 0 W/m² | - |
| 1777598051 | 21.11° C | 82% | 1011.5 hPa | 0 mm | - | 0 W/m² | - |
| 1777597404 | 21.67° C | 81% | 1011.8 hPa | 0 mm | - | 0 W/m² | - |
| 1777596230 | 22.22° C | 80% | 1011.9 hPa | 0 mm | - | 9 W/m² | - |
| 1777595656 | 22.22° C | 78% | 1011.7 hPa | 0 mm | - | 18 W/m² | - |
| 1777595015 | 22.78° C | 78% | 1011.9 hPa | 0 mm | - | 65 W/m² | - |
| 1777594454 | 22.78° C | 77% | 1011.9 hPa | 0 mm | - | 60 W/m² | - |
| 1777593821 | 22.78° C | 77% | 1011.8 hPa | 0 mm | - | 81 W/m² | - |
| 1777593252 | 23.33° C | 77% | 1011.6 hPa | 0 mm | - | 114 W/m² | - |
| 1777592660 | 23.33° C | 76% | 1011.7 hPa | 0 mm | - | 100 W/m² | - |
| 1777592023 | 23.33° C | 76% | 1011.4 hPa | 0 mm | - | 100 W/m² | - |
| 1777591451 | 23.33° C | 76% | 1011.2 hPa | 0 mm | - | 91 W/m² | - |
| 1777590816 | 22.78° C | 76% | 1011.5 hPa | 0 mm | - | 174 W/m² | - |
| 1777590248 | 22.78° C | 75% | 1011.6 hPa | 0 mm | - | 128 W/m² | - |
| 1777589612 | 22.78° C | 76% | 1011.6 hPa | 0 mm | - | 151 W/m² | - |
| 1777589029 | 22.78° C | 75% | 1011.7 hPa | 0 mm | - | 141 W/m² | - |
* Rain latest hour (hover to see other rain measurements)
** Current wind speed in m/s (hover to see current wind gust speed)